Home   Weather   Cupertino   Past weeks

Flag for USA Past Weather in Cupertino, California, USA — Yesterday and Last 2 Weeks

Now
49 °F

Rain. Fog.


Feels Like: 46 °F
Forecast: 48 / 55 °F
Wind: 7 mph from Southeast

Location: Moffett Field

Current Time: Jan 22, 2017 at 6:47:00 am

Latest Report: Jan 22, 2017 at 5:56 am


Visibility: 4 mi

Pressure: 29.73 "Hg

Humidity: 93%

Dew Point: 47 °F

Location of CupertinoLocation

Past Weather in Cupertino — Graph

°F

Cupertino Temperature Yesterday

Maximum temperature yesterday: 56 °F (at 12:56 pm)
Minimum temperature yesterday: 44 °F (at 6:56 am)
Average temperature yesterday: 50 °F

High & Low Weather Summary for the Past Weeks

 TemperatureHumidityPressure
High63 °F (Jan 8, 12:56 pm)93% (Jan 7, 9:56 pm)30.26 "Hg (Jan 7, 9:56 pm)
Low37 °F (Jan 14, 4:56 am)42% (Jan 14, 1:56 pm)29.34 "Hg (Jan 20, 6:27 am)
Average51 °F79%29.95 "Hg
* Reported Jan 7 4:56 am — Jan 22 4:56 am, Cupertino, Weather by CustomWeather, © 2017

Note: Actual official high and low records may vary slightly from our data, if they occured in-between our weather recording intervals... More about our weather records

Advertising

Cupertino Weather History for the Previous 24 Hours

Scroll right to see more
 ConditionsComfort  
Time TempWeatherWind HumidityBarometerVisibility
4:56 am
Sun, Jan 22
49 °FRain. Fog.17 mph90%29.68 "Hg5 mi
4:29 am49 °FRain. Fog.21 mph90%29.67 "Hg4 mi
4:07 am48 °FRain. Fog.14 mph93%29.66 "Hg4 mi
3:56 am48 °FRain. Fog.14 mph93%29.68 "Hg3 mi
3:44 am49 °FRain. Fog.10 mph90%29.67 "Hg4 mi
2:56 am49 °FLight rain. Fog.15 mph86%29.69 "Hg5 mi
1:56 am49 °FLight rain. Fog.21 mph86%29.68 "Hg6 mi
12:56 am50 °FLight rain. Mostly cloudy.21 mph77%29.72 "Hg10 mi
11:56 pm
Sat, Jan 21
52 °FOvercast.21 mph64%29.74 "Hg10 mi
10:56 pm51 °FMostly cloudy.10 mph69%29.78 "Hg10 mi
9:56 pm50 °FOvercast.13 mph74%29.80 "Hg10 mi
8:56 pm50 °FLight rain. Mostly cloudy.12 mph80%29.86 "Hg10 mi
7:56 pm50 °FLight rain. Mostly cloudy.12 mph74%29.88 "Hg10 mi
6:56 pm51 °FLight rain. Overcast.12 mph74%29.89 "Hg10 mi
5:56 pm52 °FLight rain. Overcast.10 mph72%29.89 "Hg10 mi
4:56 pm53 °FLight rain. Cloudy.8 mph69%29.90 "Hg10 mi
3:56 pm54 °FPartly sunny.9 mph67%29.89 "Hg10 mi
2:56 pm55 °FSunny.9 mph64%29.89 "Hg10 mi
1:56 pm55 °FMostly cloudy.9 mph67%29.88 "Hg10 mi
12:56 pm56 °FBroken clouds.8 mph62%29.88 "Hg10 mi
11:56 am55 °FScattered clouds.3 mph57%29.88 "Hg10 mi
10:56 am54 °FBroken clouds.7 mph72%29.88 "Hg10 mi
9:56 am52 °FSunny.7 mph77%29.85 "Hg10 mi
8:56 am48 °FBroken clouds.6 mph89%29.82 "Hg10 mi
8:31 am48 °FLight rain. Mostly cloudy.6 mph89%29.80 "Hg9 mi
7:56 am46 °FBroken clouds.5 mph89%29.78 "Hg10 mi
7:22 am45 °FScattered clouds.5 mph90%29.76 "Hg10 mi
6:56 am44 °FMostly cloudy.7 mph89%29.74 "Hg10 mi
6:32 am45 °FMostly cloudy.7 mph90%29.72 "Hg10 mi
Weather by CustomWeather, © 2017

See weather overviewHow to use our weather pages